Regional Weather Roundup
Issued by NWS

Home | Current Version | Previous Version | Text Only | Print | Product List | Glossary Off
Versions: 1 2 3 4 5 6 7 8 9 10 11 12 13 14 15 16 17 18 19 20 21 22 23 24 25 26 27 28 29 30 31 32 33 34 35 36 37 38 39 40 41 42 43 44 45 46 47 48 49 50

000
ASUS45 KABQ 281201
RWRNM
NEW MEXICO REGIONAL WEATHER ROUNDUP
NATIONAL WEATHER SERVICE ALBUQUERQUE NM
600 AM MDT WED JUN 28 2017

NOTE: "FAIR" MEANS FEW OR NO CLOUDS BELOW 12,000 FEET AGL WITH NO
       SIGNIFICANT WEATHER OR OBSTRUCTIONS TO VISION.

      THIS PRODUCT IS RELEASED AS TWO VERSIONS.  ONE VERSION NEAR
      THE TOP OF THE HOUR CONTAINING PRELIMINARY DATA FROM ALBUQUERQUE
      AND OTHER STATIONS.  A FINAL VERSION WITH ADDITIONAL DATA IS
      ISSUED ABOUT 10 MINUTES AFTER THE HOUR.

NMZ501-503-504-510>518-281300-
NORTHWEST PLATEAU/NORTHCENTRAL MOUNTAINS

CITY           SKY/WX    TMP DP  RH WIND       PRES   REMARKS
FARMINGTON     FAIR      48  16  27 N6        29.99R
6HR MIN TEMP:  48; 6HR MAX TEMP:  68;

LOS ALAMOS     FAIR      68  15  13 S5        30.13R
SANTA FE       FAIR      57  38  48 N3        30.08R
6HR MIN TEMP:  53; 6HR MAX TEMP:  68;

TAOS           FAIR      48  27  43 E5        30.14S
ANGEL FIRE     FAIR      37  33  85 N3        30.23R

$$
NMZ402-403-502-505>509-281300-
WESTCENTRAL MOUNTAINS/SOUTHWEST MOUNTAINS

CITY           SKY/WX    TMP DP  RH WIND       PRES   REMARKS
GALLUP         FAIR      52  20  28 NE3       30.13R
6HR MIN TEMP:  51; 6HR MAX TEMP:  69;

GRANTS         FAIR      55  17  22 SE3       30.14S
SILVER CITY    FAIR      52  31  44 NW10      30.09R

$$
NMZ407-409-411-412-281300-
SOUTHERN DESERTS

CITY           SKY/WX    TMP DP  RH WIND       PRES   REMARKS
DEMING         FAIR      70  50  49 NW10      30.01R
6HR MIN TEMP:  70; 6HR MAX TEMP:  82;

LAS CRUCES     FAIR      73  47  39 W14       30.01R
HOLLOMAN AFB   FAIR      75  49  39 S9        29.98R
ALAMOGORDO     FAIR      75  46  35 S12       29.97R
T OR C         FAIR      68  36  30 NW9       30.01R
6HR MIN TEMP:  61; 6HR MAX TEMP:  71;


$$
NMZ519>523-281300-
CENTRAL VALLEYS/CENTRAL HIGHLANDS

CITY           SKY/WX    TMP DP  RH WIND       PRES   REMARKS
ALBUQUERQUE    FAIR      66  31  27 SE12      30.04R
6HR MIN TEMP:  65; 6HR MAX TEMP:  76;

DOUBLE EAGLE   PTCLDY    52  27  37 SW9       30.07R
MORIARTY ARPT  FAIR      50  44  81 CALM      30.10R
6HR MIN TEMP:  50; 6HR MAX TEMP:  68;

CLINES CORNERS FAIR      53  34  48 SW12      30.14R
6HR MIN TEMP:  53; 6HR MAX TEMP:  67;

BELEN          FAIR      62  30  29 S9        30.04R
6HR MIN TEMP:  59; 6HR MAX TEMP:  75;

SOCORRO        FAIR      58  49  71 W6        30.03R
6HR MIN TEMP:  58; 6HR MAX TEMP:  70;


$$
NMZ524>526-539-540-281300-
SOUTHCENTRAL MOUNTAINS

CITY           SKY/WX    TMP DP  RH WIND       PRES   REMARKS
RUIDOSO        FAIR      68  46  45 SW16G26   30.15R

$$
NMZ527>531-281300-
NORTHEAST HIGHLANDS/NORTHEAST PLAINS

CITY           SKY/WX    TMP DP  RH WIND       PRES   REMARKS
LAS VEGAS      FAIR      64  28  25 N6        30.08R
6HR MIN TEMP:  53; 6HR MAX TEMP:  66;

RATON          FAIR      48  44  86 N5        30.04R
6HR MIN TEMP:  48; 6HR MAX TEMP:  63;

CLAYTON        FAIR      63  51  65 SW10      29.91R
6HR MIN TEMP:  60; 6HR MAX TEMP:  68;


$$
NMZ532>537-281300-
EASTCENTRAL PLAINS

CITY           SKY/WX    TMP DP  RH WIND       PRES   REMARKS
SANTA ROSA     FAIR      60  50  69 SE10      29.95S
TUCUMCARI      FAIR      71  57  61 SW22G28   29.86S
6HR MIN TEMP:  71; 6HR MAX TEMP:  78;

CANNON AFB     FAIR      67  65  91 S8        29.97R
6HR MIN TEMP:  67; 6HR MAX TEMP:  73;

CLOVIS AIRPORT FAIR      65  60  84 S15       29.96R

$$
NMZ028-029-538-281300-
SOUTHEAST PLAINS

CITY           SKY/WX    TMP DP  RH WIND       PRES   REMARKS
ROSWELL        FAIR      70  57  63 S12       29.91F
6HR MIN TEMP:  70; 6HR MAX TEMP:  76;

ARTESIA        FAIR      70  63  78 MISG      29.93R
CARLSBAD       FAIR      70  64  81 SE7       29.91S
6HR MIN TEMP:  70; 6HR MAX TEMP:  76;

HOBBS          CLEAR     68  64  88 SE12G18   29.98R


$$




USA.gov is the U.S. government's official web portal to all federal, state and local government web resources and services.